SCP
1 1 1 1 0 0 0 0 0 0 0 0 0 0 0 0 0 0 0 0 0 0 0 0 0 0 0 0 0 0 0 0 0 0 0 0 0 0 0 0 0 0 0
1 1 1 1 0 0 0 0 0 0 0 0 0 0 0 0 0 0 0 0 0 0 0 0 0 0 0 0 0 0 0 0 0 0 0 0 0 0 0 0 0 0 0
1 1 1 1 0 0 0 0 0 0 0 0 0 0 0 0 0 0 0 0 0 0 0 0 0 0 0 0 0 0 0 0 0 0 0 0 0 0 0 0 0 0 0
1 1 1 1 1 0 0 0 0 0 0 0 0 0 0 0 0 0 0 0 0 0 0 0 0 0 0 0 0 0 0 0 0 0 0 0 0 0 0 0 0 0 0
1 1 1 1 1 1 0 0 0 0 0 0 0 0 0 0 0 0 0 0 0 0 0 0 0 0 0 0 0 0 0 0 0 0 0 0 0 0 0 0 0 0 0
1 1 1 1 1 1 1 0 0 0 0 0 0 0 0 0 0 0 0 0 0 0 0 0 0 0 0 0 0 0 0 0 0 0 0 0 0 0 0 0 0 0 0
1 1 1 1 1 1 1 1 0 0 0 0 0 0 0 0 0 0 0 0 0 0 0 0 0 0 0 0 0 0 0 0 0 0 0 0 0 0 0 0 0 0 0
1 1 1 1 1 1 1 1 1 1 0 0 0 0 0 0 0 0 0 0 0 0 0 0 0 0 0 0 0 0 0 0 0 0 0 0 0 0 0 0 0 0 0
1 1 1 1 1 1 1 1 1 1 1 1 0 0 0 0 0 0 0 0 0 0 0 0 0 0 0 0 0 0 0 0 0 0 0 0 0 1 0 0 0 0 0
1 1 1 1 1 1 1 1 1 1 1 1 1 0 0 0 0 0 0 0 0 0 0 0 0 0 0 0 0 0 0 0 0 0 0 0 1 1 0 0 0 0 0
1 1 1 1 1 1 1 1 1 1 1 1 0 0 0 0 0 0 0 0 0 0 0 0 0 0 0 0 0 0 0 0 0 0 0 0 1 1 0 0 0 0 0
1 1 1 1 1 1 1 1 1 1 1 1 0 0 0 0 0 0 0 0 0 0 0 0 0 0 0 0 0 0 0 0 0 0 0 0 1 1 0 0 0 0 0
1 1 1 1 1 1 1 1 1 1 1 0 0 0 0 0 0 0 0 0 0 0 0 0 0 0 0 0 0 0 0 0 0 0 0 0 1 1 0 0 0 0 0
1 1 1 1 1 1 1 1 1 1 1 1 1 1 0 0 0 0 0 0 0 0 0 0 0 0 0 0 0 0 0 0 0 0 0 0 0 0 0 0 0 0 0
1 1 1 1 2 2 1 1 1 1 1 1 1 1 1 0 0 0 0 0 0 0 0 0 0 0 0 0 0 0 0 0 0 0 0 0 0 0 0 0 0 0 0
1 1 1 1 2 2 2 1 1 1 1 1 1 1 1 1 1 1 0 0 0 0 0 0 0 0 0 0 0 0 0 0 0 0 0 0 0 0 0 0 0 0 0
1 1 1 1 1 2 2 1 1 1 1 1 1 1 1 1 1 1 0 0 0 0 0 0 0 0 0 0 0 0 0 0 0 0 0 0 0 0 0 0 0 0 0
1 2 1 1 1 2 2 2 1 1 1 1 1 1 1 1 1 1 1 0 0 0 0 0 0 0 0 0 0 0 0 0 0 0 0 0 0 0 0 0 0 0 0
2 2 1 1 1 1 2 2 1 1 1 1 1 1 1 1 1 1 1 0 0 0 0 0 0 0 0 0 0 0 0 0 0 0 0 0 0 0 0 0 0 0 0
2 2 2 2 2 2 2 1 1 1 1 1 1 1 1 1 1 1 1 0 0 0 0 0 0 0 0 0 0 0 0 0 0 0 0 0 0 0 0 0 0 0 0
2 2 2 2 2 2 1 1 1 1 1 1 1 1 1 1 1 1 0 0 0 0 0 0 0 0 0 0 0 0 0 0 0 0 0 0 0 0 0 0 0 0 0
2 2 2 2 2 2 1 1 1 1 1 1 1 1 1 1 1 1 0 1 1 0 0 0 0 0 0 0 0 0 0 0 0 0 0 0 0 0 0 0 0 0 0
2 2 2 2 2 1 1 1 1 1 1 1 1 1 1 1 1 1 0 1 1 1 1 1 0 0 0 0 0 0 0 0 0 0 0 0 0 0 0 0 0 0 0
2 1 1 1 1 1 1 1 1 1 1 1 1 1 1 1 1 1 1 1 1 1 1 1 0 0 0 0 0 0 0 0 0 0 0 0 0 0 0 0 0 0 0
1 1 1 1 1 1 1 1 1 1 1 1 1 1 1 1 1 1 1 1 1 1 1 1 1 0 0 0 0 0 0 0 0 0 0 0 0 0 0 0 0 0 0
1 1 1 2 2 1 1 1 1 1 1 1 1 1 1 1 1 1 1 1 1 1 1 1 1 1 0 0 0 0 0 0 0 0 0 0 0 0 0 0 0 0 0
Wind_Speed
14 15 15 13 12 11 11 11 11 11 11 10 10 10 10 10 10 10 10 10 9 9 9 9 9 8 9 9 9 9 9 8 8 9 9 9 10 9 8 7 6 7 10
16 16 16 14 12 11 11 11 11 11 11 11 10 10 10 10 9 9 9 8 8 8 8 8 8 8 8 8 7 7 6 6 6 6 7 7 8 7 7 7 6 6 9
17 15 15 13 12 11 11 11 11 11 11 11 10 10 9 9 8 8 7 7 7 6 7 7 7 7 7 6 6 5 4 3 3 3 4 3 6 7 7 7 8 8 8
16 14 13 14 12 11 11 10 10 10 10 10 10 10 9 8 8 7 7 6 6 5 6 6 6 6 5 5 4 3 2 1 1 2 3 3 4 8 8 8 7 7 7
14 13 14 14 12 11 11 11 10 10 10 10 10 9 9 8 7 6 6 6 5 5 5 5 5 5 4 4 3 1 0 2 3 5 2 2 4 9 9 8 7 7 6
14 14 14 14 13 12 11 11 10 10 9 9 9 8 8 7 6 6 5 5 5 5 5 4 4 4 3 3 2 0 2 3 4 4 2 4 5 9 9 8 7 6 5
13 14 14 13 13 12 12 11 10 10 9 8 8 8 7 7 6 5 5 5 5 5 5 5 4 4 3 2 1 1 3 4 4 3 1 4 6 10 9 8 7 6 5
13 14 13 13 13 12 12 11 10 9 9 8 8 8 7 6 6 6 6 5 5 5 5 5 4 3 2 2 1 2 4 6 4 1 2 5 9 10 9 8 7 6 5
12 13 12 12 11 12 12 11 10 10 9 9 8 8 7 7 7 7 6 6 5 5 4 4 3 2 2 2 2 3 4 6 5 2 1 5 10 11 10 8 8 6 5
9 12 11 11 10 10 10 11 11 10 10 9 9 9 9 8 8 8 8 7 6 5 4 4 4 4 3 3 4 5 5 5 4 2 1 6 12 11 10 8 7 6 5
7 9 10 10 9 9 10 10 10 10 10 9 8 9 8 6 7 7 7 8 7 6 5 5 4 4 4 6 7 7 5 3 2 1 2 9 11 10 9 8 7 6 5
6 7 7 9 8 7 6 8 6 7 7 6 5 6 5 4 4 5 8 9 8 7 6 7 6 5 5 4 5 7 3 4 2 2 4 10 10 9 8 7 6 5 5
6 5 5 6 6 5 4 5 3 3 4 5 5 5 4 2 3 4 4 5 5 6 4 5 5 4 3 2 1 3 3 2 1 2 5 9 9 8 7 6 5 5 4
6 5 5 5 5 4 4 3 3 3 3 3 4 4 3 2 2 2 2 2 3 2 3 3 2 3 2 2 2 2 2 1 1 2 4 8 8 7 6 6 5 5 4
6 5 6 4 4 3 3 2 2 2 2 3 3 3 2 2 2 2 1 1 2 2 2 2 1 1 2 1 1 1 1 1 2 2 3 6 7 7 6 5 5 4 4
5 5 5 4 4 4 3 2 2 2 2 3 3 3 2 2 2 1 1 1 1 1 2 1 1 1 1 1 1 1 0 1 2 1 2 4 5 6 6 6 5 4 4
5 5 5 5 5 3 3 2 2 2 3 2 3 3 3 2 2 1 1 1 1 1 1 1 0 1 1 1 1 1 1 1 2 2 2 3 3 4 6 6 6 5 5
5 5 4 5 6 4 3 2 1 1 3 2 3 3 3 2 2 2 2 1 2 1 1 1 1 1 1 1 1 1 1 1 1 1 1 2 2 3 4 6 7 7 7
6 6 5 4 5 5 4 2 1 1 2 2 3 3 3 2 2 2 1 1 2 1 1 1 1 1 1 1 1 1 1 1 1 1 1 1 2 2 3 5 7 7 7
7 7 6 5 4 4 4 3 2 2 3 2 3 3 3 2 2 2 1 1 1 1 0 1 1 1 1 2 2 1 1 1 1 1 1 1 1 2 3 4 4 5 8
7 7 6 6 5 4 3 3 3 2 3 3 3 4 4 2 2 1 1 1 1 1 1 1 1 2 2 1 1 1 1 2 2 2 1 1 1 2 2 3 3 3 4
7 7 6 6 5 4 3 3 2 2 3 3 3 4 4 3 2 2 2 1 1 1 1 1 1 1 2 1 1 1 1 1 2 2 2 2 2 1 2 3 3 3 2
7 7 6 5 5 4 4 3 2 2 1 2 4 4 4 4 3 2 1 1 1 2 2 2 2 2 1 1 1 1 1 1 1 1 2 2 2 1 1 1 1 2 3
7 7 6 5 4 4 3 3 3 3 2 2 2 3 4 4 3 3 2 2 2 2 2 2 1 1 1 1 2 1 1 0 1 1 2 2 3 2 2 1 0 1 2
8 8 7 6 5 4 4 4 3 2 2 2 2 3 3 3 3 4 4 3 3 2 2 2 2 2 1 2 2 2 2 2 2 2 2 2 2 2 2 2 1 1 2
7 7 8 7 5 5 4 4 3 2 2 2 2 3 3 2 3 3 3 3 3 2 2 2 2 3 2 2 2 2 2 2 2 2 2 2 2 3 2 2 2 2 2
Wind_Direction
111 121 124 121 118 118 119 119 118 115 113 112 110 107 102 97 93 93 94 94 96 99 102 100 96 91 87 82 80 78 78 81 88 95 98 100 100 102 101 96 110 105 107
116 123 126 124 122 121 122 123 122 120 119 117 115 113 109 104 102 101 100 98 98 100 102 101 99 97 93 89 86 85 86 88 96 109 119 116 113 115 114 106 95 106 111
117 127 129 127 125 124 123 125 125 124 123 122 121 118 116 112 109 108 106 103 102 105 107 106 104 102 99 97 93 92 92 97 112 137 163 155 133 126 124 115 108 113 113
119 130 130 130 129 127 126 126 128 128 128 128 128 127 126 122 119 116 113 112 112 111 111 112 110 107 103 100 97 98 103 135 232 250 218 176 139 131 127 122 117 123 123
117 124 127 134 132 132 132 132 133 133 133 135 135 134 133 131 129 126 123 122 124 119 117 119 116 112 107 101 96 99 214 265 272 265 243 127 109 130 128 125 123 127 130
127 128 130 135 135 135 137 137 138 139 138 138 140 140 138 139 138 136 133 132 129 123 119 117 117 118 119 113 110 176 267 268 279 258 196 130 119 131 132 132 131 131 132
130 129 132 137 137 140 143 143 143 143 143 143 145 145 145 146 143 139 134 130 125 121 116 110 107 109 121 131 148 244 279 283 270 268 100 111 123 130 132 132 132 133 134
129 127 132 139 143 146 148 149 149 148 148 149 149 151 151 151 150 145 139 133 128 125 121 114 111 112 118 138 192 252 273 282 281 263 114 108 119 127 130 132 133 132 132
129 128 138 145 147 148 150 151 151 153 153 154 156 159 161 161 158 154 147 141 136 134 133 135 137 150 169 198 230 252 266 277 289 273 145 116 130 130 128 128 128 128 131
130 131 142 146 148 152 151 154 154 155 157 160 166 172 173 175 173 169 156 149 150 152 156 169 180 192 206 223 234 249 266 280 265 255 110 122 132 134 135 135 133 130 132
128 134 147 146 153 158 156 157 159 163 168 171 179 186 182 185 180 177 160 157 167 172 178 192 202 209 222 230 234 244 257 244 242 155 99 122 132 136 137 138 139 142 147
143 146 145 142 145 154 155 150 165 172 167 182 175 177 188 192 175 160 148 165 177 184 189 203 213 219 227 223 222 227 235 232 220 133 119 129 131 134 137 140 146 154 166
142 136 127 130 133 145 140 149 160 166 161 181 170 177 185 182 159 137 151 160 182 190 201 197 212 220 220 220 215 206 225 240 136 111 121 130 131 132 138 143 149 158 169
144 131 119 120 123 125 122 144 162 164 155 166 162 173 172 171 154 140 145 160 181 189 196 196 206 207 216 233 223 228 223 204 100 106 129 136 139 143 150 158 165 172 179
132 118 105 107 119 119 107 141 140 126 143 145 147 150 167 161 140 140 153 169 197 182 181 217 208 194 218 237 230 223 235 97 99 106 127 148 152 159 169 177 183 189 199
131 128 122 129 119 124 125 125 112 128 147 139 127 139 166 142 131 151 164 188 217 191 178 197 190 209 232 246 266 255 171 109 99 135 152 153 161 173 179 182 190 197 206
132 128 128 139 125 137 139 153 148 155 153 141 133 143 150 139 140 162 180 192 226 218 165 175 207 220 228 221 223 230 172 129 140 171 167 157 164 175 183 186 192 198 208
136 135 148 152 139 147 136 153 136 143 139 137 132 136 139 151 156 176 173 187 223 211 173 190 179 223 257 255 208 218 145 136 145 194 185 177 174 176 186 191 193 202 209
134 140 142 132 144 144 142 147 153 135 119 122 122 127 140 157 158 159 171 179 202 190 175 212 162 208 236 247 232 201 178 166 167 204 215 199 194 177 177 187 194 202 205
138 142 146 145 145 148 147 157 167 154 140 135 131 128 137 159 158 161 169 140 146 138 187 205 151 229 240 233 249 230 211 171 160 186 230 218 209 200 183 183 188 205 207
139 145 153 154 152 161 159 170 170 166 161 155 152 144 149 160 158 159 159 165 167 146 165 205 198 227 242 229 233 262 239 198 181 200 203 233 231 216 191 179 184 185 196
143 144 152 156 160 172 160 165 167 173 178 157 142 143 159 160 169 174 158 166 151 164 185 217 247 238 247 223 208 243 236 228 245 215 195 202 226 229 207 203 195 174 175
151 150 154 155 157 169 167 161 158 149 188 158 155 158 164 166 166 170 166 187 178 184 176 216 227 240 245 244 216 214 226 228 232 228 230 204 204 240 242 223 189 167 177
154 149 142 145 148 161 171 170 173 166 181 177 160 157 161 167 172 183 192 203 201 203 198 210 181 245 247 247 240 234 234 323 221 241 244 221 210 211 219 236 231 169 157
154 148 146 147 150 157 172 169 179 186 177 169 158 150 163 174 185 193 197 202 207 211 197 202 210 231 245 250 252 262 257 243 231 222 244 242 237 225 205 210 198 189 183
155 152 151 151 153 157 170 176 180 189 181 171 169 170 181 179 193 202 205 204 200 208 204 207 215 223 239 262 265 252 248 247 248 242 241 240 239 236 213 204 210 197 191